{"data":{"norad_id":63216,"intl_designator":"2025-052G","name":"BOTSAT-1","alt_names":[],"object_type":"PAYLOAD","status":"ACTIVE","operator":null,"country":"BWA","launch_date":"2025-03-15","launch_site_code":"AFWTR","launch_vehicle":null,"mission":null,"orbit_class":"UNKNOWN","rcs_meters":null,"size_class":null,"mass_kg":null,"dimensions":null,"purposes":[],"wikipedia_slug":null,"has_3d_model":false,"image_url":null,"decayed_at":null,"tle_current":{"epoch":"2026-09-22T22:32:09.644928Z","epoch_age_seconds":100422,"freshness":"FRESH","line1":"1 63216U 25052G   26265.93900052  .00005938  00000+0  21635-3 0  9995","line2":"2 63216  97.3747 158.8478 0003751 114.6681 245.4950 15.28563368 84885","mean_motion":15.28563368,"eccentricity":0.0003751,"inclination_deg":97.3747,"raan_deg":158.8478,"arg_perigee_deg":114.6681,"mean_anomaly_deg":245.495,"bstar":0.00021635,"rev_number":8488,"period_min":94.206104250956,"perigee_km":477.53359020003,"apogee_km":482.67864418655,"semimajor_km":6858.2431171933,"source":"CELESTRAK","updated_at":"2026-09-23T09:00:21.898801Z"}}}